Weather in Pistoia

Italy     43°55′39″N   10°55′07″E
temp.,
°C
wind,
m/s
gust,
m/s
humid.,
%
clouds,
%
prec.,
mm/h
press.,
hPa
HPBL,
m
16 april, fri
fri1623:00+2n349079 0.0 102184
02:00+3n358393 0.0 1020161
05:00+1n35777 0.0 1019107
08:00+3nne466817 0.0 1019395
11:00+9ne354884 0.0 10181207
14:00+11ne6547100 0.0 10171856
17:00+10ne564633 0.0 10161550
20:00+4n3667100 0.0 1017152
17 april, sat
sat1723:00+2n4767100 0.0 1018132
02:00+2n476563 0.0 1018133
05:00+2n4862100 0.0 1016222
08:00+5n41059100 0.0 1015696
11:00+8nne51052100 0.0 10141229
14:00+10nne6951100 0.0 10131580
17:00+9nne4754100 0.0 10131519
20:00+5n3376100 0.0 101461
18 april, sun
sun1823:00+3n3581100 0.0 101586
02:00+4n3780100 0.0 1015432
05:00+5n2681100 0.0 1014392
08:00+6n3776100 0.1 1014879
11:00+9nne3658100 0.0 10151404
14:00+9nne356387 0.2 10151218
17:00+10ne3459100 0.2 10141299
20:00+6nne2275100 0.2 101548
19 april, mon
mon1923:00+5nne2379100 0.0 101672
02:00+4nne238695 0.0 101667
05:00+3n228656 0.0 101643
08:00+6nne127322 0.0 1016111
11:00+12s225214 0.0 10141299
14:00+12sw225776 0.4 10141410
17:00+11wsw226954 1.1 1013757
20:00+7sw118940 2.2 101415
20 april, tue
tue2023:00+6ssw009367 0.1 101513
02:00+5ssw019764 0.1 101569
05:00+6ssw119688 0.0 101577
08:00+7s128685 0.0 1015471
11:00+8ssw238570 0.0 1016525
14:00+12sw346687 0.3 10141068
17:00+11sw366848 0.3 10131142
20:00+7sw22865 0.3 101434